KE9LZ-9 Weather Reports


Display with metric or nautical units.
time (UTC)temp
F
wind
direction
speed
MPH
gust
MPH
rain 1hr
in
rain 24hr
in
rain mn
in
humidity
%
barometer
mb
20180420163505 58 255 2.0 6.0 0.00 0.00 0.00 17 1025.7
20180420163004 57 106 0.0 2.0 0.00 0.00 0.00 18 1025.7
20180420162504 58 139 0.0 2.0 0.00 0.00 0.00 19 1025.7
20180420162005 59 225 2.0 3.0 0.00 0.00 0.00 17 1025.7
20180420161505 58 181 2.0 3.0 0.00 0.00 0.00 17 1025.7
20180420161006 58 197 2.0 3.0 0.00 0.00 0.00 17 1026.1
20180420160014 57 290 2.0 5.0 0.00 0.00 0.00 17 1025.8
20180420155504 57 149 2.0 2.0 0.00 0.00 0.00 17 1025.8
20180420155007 58 224 3.0 5.0 0.00 0.00 0.00 17 1025.5
20180420154504 57 332 2.0 5.0 0.00 0.00 0.00 19 1025.8
20180420154013 57 270 2.0 3.0 0.00 0.00 0.00 17 1025.8
20180420153504 57 223 1.0 3.0 0.00 0.00 0.00 17 1025.8
20180420153008 57 315 1.0 3.0 0.00 0.00 0.00 17 1025.8
20180420152504 57 240 2.0 3.0 0.00 0.00 0.00 17 1025.8
20180420152003 56 127 1.0 2.0 0.00 0.00 0.00 19 1025.8
20180420151003 56 135 2.0 3.0 0.00 0.00 0.00 17 1025.8
20180420150004 58 269 0.0 2.0 0.00 0.00 0.00 19 1025.8
20180420145503 56 161 0.0 1.0 0.00 0.00 0.00 20 1025.9
20180420145004 56 246 1.0 3.0 0.00 0.00 0.00 21 1025.9
20180420144505 55 225 0.0 0.0 0.00 0.00 0.00 20 1025.6
20180420144007 55 116 0.0 0.0 0.00 0.00 0.00 21 1025.9
20180420143507 54 165 0.0 1.0 0.00 0.00 0.00 24 1025.6
20180420143004 54 224 0.0 1.0 0.00 0.00 0.00 21 1025.9
20180420142504 53 156 1.0 2.0 0.00 0.00 0.00 22 1025.7
20180420142004 53 225 0.0 1.0 0.00 0.00 0.00 25 1026.0
20180420141505 52 215 0.0 0.0 0.00 0.00 0.00 24 1026.6
20180420141005 51 203 0.0 0.0 0.00 0.00 0.00 24 1027.6
20180420140004 51 222 0.0 3.0 0.00 0.00 0.00 25 1027.8
20180420135505 50 227 0.0 1.0 0.00 0.00 0.00 27 1027.7
20180420135004 50 203 0.0 1.0 0.00 0.00 0.00 26 1027.7
20180420134504 50 236 0.0 0.0 0.00 0.00 0.00 27 1028.0
20180420134004 47 228 0.0 1.0 0.00 0.00 0.00 29 1027.8
20180420133504 47 225 0.0 1.0 0.00 0.00 0.00 29 1027.7
20180420133004 46 180 0.0 0.0 0.00 0.00 0.00 30 1027.7
20180420132505 45 180 0.0 0.0 0.00 0.00 0.00 30 1027.7
20180420132005 43 239 0.0 1.0 0.00 0.00 0.00 31 1027.8
20180420131504 41 320 0.0 1.0 0.00 0.00 0.00 35 1027.7
20180420131004 38 225 1.0 2.0 0.00 0.00 0.00 41 1027.7
20180420130004 35 248 0.0 0.0 0.00 0.00 0.00 52 1027.7
20180420125505 33 225 0.0 0.0 0.00 0.00 0.00 59 1027.6
20180420125005 31 225 0.0 0.0 0.00 0.00 0.00 63 1027.7
20180420124504 30 203 0.0 0.0 0.00 0.00 0.00 63 1027.7
20180420124010 29 225 0.0 0.0 0.00 0.00 0.00 65 1027.7
20180420123505 28 225 0.0 0.0 0.00 0.00 0.00 66 1027.7
20180420123005 26 225 0.0 0.0 0.00 0.00 0.00 70 1027.7
20180420122507 25 225 0.0 0.0 0.00 0.00 0.00 73 1027.7
20180420122004 23 212 0.0 0.0 0.00 0.00 0.00 76 1027.5
20180420121513 22 225 0.0 0.0 0.00 0.00 0.00 79 1027.6
20180420121004 21 217 0.0 0.0 0.00 0.00 0.00 83 1027.6
20180420120005 19 225 0.0 0.0 0.00 0.00 0.00 81 1027.6
20180420115504 19 203 0.0 0.0 0.00 0.00 0.00 83 1027.6
20180420115004 19 223 0.0 0.0 0.00 0.00 0.00 83 1027.6
20180420114504 18 225 0.0 0.0 0.00 0.00 0.00 83 1027.6
20180420114005 18 225 0.0 0.0 0.00 0.00 0.00 86 1027.2
20180420113512 18 207 0.0 0.0 0.00 0.00 0.00 86 1027.3
20180420113004 17 228 0.0 0.0 0.00 0.00 0.00 86 1027.5
20180420112504 17 248 0.0 0.0 0.00 0.00 0.00 86 1027.5
20180420112007 17 248 0.0 0.0 0.00 0.00 0.00 85 1027.3
20180420111504 17 248 0.0 0.0 0.00 0.00 0.00 88 1027.1
20180420111008 17 225 0.0 0.0 0.00 0.00 0.00 86 1027.1
20180420110004 17 248 0.0 0.0 0.00 0.00 0.00 84 1027.1
20180420105507 17 225 0.0 0.0 0.00 0.00 0.00 83 1027.1
20180420105004 17 236 0.0 0.0 0.00 0.00 0.00 83 1027.1
20180420104503 17 239 0.0 0.0 0.00 0.00 0.00 85 1027.0
20180420104004 17 239 0.0 0.0 0.00 0.00 0.00 86 1027.0
20180420103503 17 225 0.0 0.0 0.00 0.00 0.00 86 1027.0
20180420103004 17 225 0.0 0.0 0.00 0.00 0.00 85 1027.0
20180420102503 18 225 0.0 0.0 0.00 0.00 0.00 85 1027.0
20180420102005 18 225 0.0 0.0 0.00 0.00 0.00 85 1026.9
20180420101504 18 235 0.0 0.0 0.00 0.00 0.00 85 1026.9
20180420101007 18 225 0.0 0.0 0.00 0.00 0.00 85 1026.9
20180420100005 18 237 0.0 0.0 0.00 0.00 0.00 81 1026.5
20180420095503 18 248 0.0 0.0 0.00 0.00 0.00 81 1026.4
20180420095003 18 230 0.0 0.0 0.00 0.00 0.00 81 1026.4
20180420094504 18 236 0.0 0.0 0.00 0.00 0.00 80 1026.4
20180420094010 18 248 0.0 0.0 0.00 0.00 0.00 81 1026.4
20180420093504 18 231 0.0 0.0 0.00 0.00 0.00 81 1026.4
20180420093004 19 225 0.0 0.0 0.00 0.00 0.00 83 1026.3
20180420092505 19 248 0.0 0.0 0.00 0.00 0.00 81 1026.3
20180420092003 19 238 0.0 0.0 0.00 0.00 0.00 81 1026.3
20180420091505 19 225 0.0 0.0 0.00 0.00 0.00 83 1026.3
20180420091004 19 248 0.0 0.0 0.00 0.00 0.00 86 1026.0
20180420090004 19 237 0.0 0.0 0.00 0.00 0.00 88 1025.9
20180420085504 19 248 0.0 0.0 0.00 0.00 0.00 86 1025.9
20180420085004 19 225 0.0 0.0 0.00 0.00 0.00 88 1026.0
20180420084504 19 225 0.0 0.0 0.00 0.00 0.00 86 1025.9
20180420084003 19 225 0.0 0.0 0.00 0.00 0.00 86 1025.8
20180420083503 19 225 0.0 0.0 0.00 0.00 0.00 85 1025.6
20180420083006 19 225 0.0 0.0 0.00 0.00 0.00 84 1025.8
20180420082504 19 225 0.0 0.0 0.00 0.00 0.00 83 1025.6
20180420082004 19 225 0.0 0.0 0.00 0.00 0.00 81 1025.6
20180420081511 19 218 0.0 0.0 0.00 0.00 0.00 81 1025.4
20180420081004 20 225 0.0 0.0 0.00 0.00 0.00 81 1025.4
20180420080013 20 225 0.0 0.0 0.00 0.00 0.00 77 1025.0
20180420075507 20 45 0.0 0.0 0.00 0.00 0.00 76 1025.0
20180420075004 20 75 0.0 0.0 0.00 0.00 0.00 77 1025.0
20180420074505 21 176 0.0 0.0 0.00 0.00 0.00 80 1024.9
20180420074005 21 225 0.0 0.0 0.00 0.00 0.00 81 1024.9
20180420073510 21 213 0.0 0.0 0.00 0.00 0.00 79 1024.9
20180420073008 21 248 0.0 0.0 0.00 0.00 0.00 80 1024.9
20180420072503 21 225 0.0 0.0 0.00 0.00 0.00 83 1024.9
20180420072008 21 225 0.0 0.0 0.00 0.00 0.00 78 1025.0
20180420071504 21 225 0.0 0.0 0.00 0.00 0.00 77 1024.8
20180420071007 21 225 0.0 0.0 0.00 0.00 0.00 77 1024.8
20180420070004 22 225 0.0 0.0 0.00 0.00 0.00 80 1024.8
20180420065503 22 225 0.0 0.0 0.00 0.00 0.00 79 1024.8
20180420065007 22 248 0.0 0.0 0.00 0.00 0.00 80 1024.8
20180420064505 22 248 0.0 0.0 0.00 0.00 0.00 81 1024.7
20180420064004 23 248 0.0 0.0 0.00 0.00 0.00 74 1024.7
20180420063504 23 90 0.0 0.0 0.00 0.00 0.00 73 1024.7
20180420063003 23 203 0.0 0.0 0.00 0.00 0.00 69 1024.7
20180420062504 23 248 0.0 0.0 0.00 0.00 0.00 70 1024.7
20180420062004 23 248 0.0 0.0 0.00 0.00 0.00 70 1024.7
20180420061504 23 266 0.0 0.0 0.00 0.00 0.00 71 1024.6
20180420061004 24 254 0.0 0.0 0.00 0.00 0.00 73 1024.6
20180420060003 24 225 0.0 0.0 0.00 0.00 0.00 70 1024.3
20180420055504 24 249 0.0 0.0 0.00 0.00 0.00 70 1024.6
20180420055004 24 248 0.0 0.0 0.00 0.00 0.00 74 1024.5
20180420054504 24 236 0.0 0.0 0.00 0.00 0.00 71 1024.6
20180420054003 24 248 0.0 0.0 0.00 0.00 0.00 70 1024.3
20180420053504 24 248 0.0 0.0 0.00 0.00 0.00 66 1024.3
20180420053005 24 247 0.0 0.0 0.00 0.00 0.00 69 1024.5
20180420052504 24 233 0.0 0.0 0.00 0.00 0.00 69 1024.5
20180420052004 24 227 0.0 0.0 0.00 0.00 0.00 73 1024.5
20180420051503 25 225 0.0 0.0 0.00 0.00 0.00 74 1024.5
20180420051007 25 225 0.0 0.0 0.00 0.00 0.00 71 1024.5
20180420050004 25 248 0.0 0.0 0.00 0.00 0.00 63 1024.3
20180420045506 25 248 0.0 0.0 0.00 0.00 0.00 63 1024.2
20180420045004 25 225 0.0 0.0 0.00 0.00 0.00 64 1024.5
20180420044504 25 225 0.0 0.0 0.00 0.00 0.00 65 1024.2
20180420043504 26 225 0.0 0.0 0.00 0.00 0.00 72 1024.1
20180420043005 26 241 0.0 0.0 0.00 0.00 0.00 69 1024.1
20180420042503 26 225 0.0 0.0 0.00 0.00 0.00 69 1024.1
20180420042004 26 225 0.0 0.0 0.00 0.00 0.00 70 1024.1
20180420041505 26 225 0.0 0.0 0.00 0.00 0.00 69 1023.9
20180420041004 27 225 0.0 0.0 0.00 0.00 0.00 64 1024.1
20180420040006 27 203 0.0 0.0 0.00 0.00 0.00 61 1023.9
20180420035507 27 225 0.0 0.0 0.00 0.00 0.00 62 1023.9
20180420035004 28 225 0.0 0.0 0.00 0.00 0.00 61 1023.7
20180420034004 28 245 0.0 0.0 0.00 0.00 0.00 60 1023.7
20180420033508 29 248 0.0 0.0 0.00 0.00 0.00 59 1023.7
20180420033005 29 225 0.0 0.0 0.00 0.00 0.00 56 1023.7
20180420032504 29 208 0.0 0.0 0.00 0.00 0.00 59 1023.6
20180420032004 29 213 0.0 0.0 0.00 0.00 0.00 56 1023.5
20180420031503 30 248 0.0 0.0 0.00 0.00 0.00 53 1023.6
20180420031007 30 227 0.0 0.0 0.00 0.00 0.00 53 1023.6
20180420030004 30 213 0.0 0.0 0.00 0.00 0.00 51 1023.6
20180420025504 31 225 0.0 0.0 0.00 0.00 0.00 50 1023.6
20180420025004 31 225 0.0 0.0 0.00 0.00 0.00 48 1023.6
20180420024503 31 225 0.0 0.0 0.00 0.00 0.00 50 1023.6
20180420024011 32 225 0.0 0.0 0.00 0.00 0.00 50 1023.6
20180420023505 32 242 0.0 0.0 0.00 0.00 0.00 48 1023.6
20180420023004 32 226 0.0 0.0 0.00 0.00 0.00 49 1023.5
20180420021004 34 225 0.0 0.0 0.00 0.00 0.00 43 1023.6
20180420020004 35 225 0.0 0.0 0.00 0.00 0.00 40 1023.3
20180420015004 35 246 0.0 0.0 0.00 0.00 0.00 40 1023.3
20180420012506 39 225 0.0 0.0 0.00 0.00 0.00 32 1023.1
20180420011504 40 248 0.0 0.0 0.00 0.00 0.00 31 1022.9
20180420011004 41 225 0.0 0.0 0.00 0.00 0.00 30 1023.1
20180420010005 42 248 0.0 0.0 0.00 0.00 0.00 28 1023.1
20180420005504 43 242 0.0 0.0 0.00 0.00 0.00 29 1023.1
20180420004504 45 246 0.0 0.0 0.00 0.00 0.00 25 1022.9
20180420004007 46 270 0.0 0.0 0.00 0.00 0.00 22 1023.2
20180420003504 47 269 0.0 0.0 0.00 0.00 0.00 22 1022.9
20180420003011 48 203 0.0 0.0 0.00 0.00 0.00 24 1022.9
20180420002503 49 269 0.0 0.0 0.00 0.00 0.00 20 1022.9
20180420002004 49 315 0.0 0.0 0.00 0.00 0.00 22 1022.8
20180420001504 50 180 0.0 0.0 0.00 0.00 0.00 20 1022.9
20180420001003 51 338 0.0 0.0 0.00 0.00 0.00 19 1022.9
20180420000003 53 283 0.0 0.0 0.00 0.00 0.00 17 1022.9
20180419235504 53 180 0.0 1.0 0.00 0.00 0.00 17 1022.9
20180419235004 53 350 0.0 1.0 0.00 0.00 0.00 17 1022.6
20180419234503 53 261 0.0 1.0 0.00 0.00 0.00 18 1022.6
20180419234004 53 338 1.0 2.0 0.00 0.00 0.00 19 1022.9
20180419233504 54 315 1.0 2.0 0.00 0.00 0.00 17 1022.9
20180419233005 54 64 0.0 1.0 0.00 0.00 0.00 17 1022.9
20180419232507 55 203 0.0 2.0 0.00 0.00 0.00 17 1022.6
20180419231504 55 155 1.0 3.0 0.00 0.00 0.00 17 1023.0
20180419231005 55 348 0.0 3.0 0.00 0.00 0.00 15 1022.7
20180419230004 55 135 1.0 3.0 0.00 0.00 0.00 15 1022.8
20180419225506 56 0 1.0 1.0 0.00 0.00 0.00 16 1023.0
20180419224504 56 293 1.0 2.0 0.00 0.00 0.00 17 1023.0
20180419224004 57 22 1.0 3.0 0.00 0.00 0.00 15 1023.1
20180419223504 56 82 1.0 2.0 0.00 0.00 0.00 16 1023.0
20180419223005 57 306 2.0 3.0 0.00 0.00 0.00 15 1022.9
20180419222504 56 274 1.0 3.0 0.00 0.00 0.00 14 1023.1
20180419222004 58 148 2.0 3.0 0.00 0.00 0.00 15 1023.0
20180419221504 57 37 2.0 3.0 0.00 0.00 0.00 15 1022.9
20180419220005 58 270 1.0 3.0 0.00 0.01 0.00 15 1022.8
20180419215504 58 66 1.0 3.0 0.00 0.01 0.00 13 1022.9
20180419215004 58 76 2.0 3.0 0.00 0.01 0.00 13 1022.9
20180419214504 58 323 1.0 6.0 0.00 0.02 0.00 16 1023.2
20180419213504 58 281 2.0 3.0 0.00 0.03 0.00 13 1023.2
20180419213003 58 343 2.0 5.0 0.00 0.04 0.00 15 1023.2
20180419212511 59 270 2.0 3.0 0.00 0.05 0.00 15 1023.3
20180419211506 58 276 3.0 10.0 0.00 0.07 0.00 15 1023.0
20180419211004 58 283 2.0 6.0 0.00 0.08 0.00 15 1022.9
20180419210005 58 286 3.0 7.0 0.00 0.09 0.00 15 1023.0
20180419190003 58 18 3.0 7.0 0.00 0.12 0.00 16 1023.2
20180419185510 59 18 2.0 5.0 0.00 0.13 0.00 15 1023.2
20180419185004 58 225 3.0 5.0 0.00 0.13 0.00 17 1022.9
20180419184506 59 78 3.0 5.0 0.00 0.15 0.00 15 1022.9
20180419184003 58 23 3.0 6.0 0.00 0.16 0.00 15 1023.3
20180419183506 58 80 2.0 6.0 0.00 0.17 0.00 15 1023.1
20180419183004 58 306 2.0 5.0 0.00 0.18 0.00 15 1023.0
20180419182504 59 67 2.0 3.0 0.00 0.20 0.00 15 1023.2
20180419182006 59 119 3.0 5.0 0.00 0.21 0.00 15 1023.2
20180419181503 60 273 4.0 9.0 0.00 0.21 0.00 16 1023.0
20180419181006 58 158 1.0 1.0 0.00 0.23 0.00 17 1023.0
20180419180007 59 315 2.0 3.0 0.00 0.25 0.00 17 1023.2
20180419175507 57 339 2.0 3.0 0.00 0.25 0.00 17 1023.3
20180419175006 57 192 2.0 3.0 0.00 0.26 0.00 17 1023.1
20180419174504 57 339 3.0 3.0 0.00 0.27 0.00 17 1023.1
20180419174005 56 221 3.0 9.0 0.00 0.27 0.00 20 1023.1
20180419173506 56 353 2.0 3.0 0.00 0.27 0.00 19 1023.1
20180419173005 56 305 3.0 3.0 0.00 0.27 0.00 18 1023.1
20180419172505 57 99 2.0 6.0 0.00 0.27 0.00 17 1023.1
20180419172007 57 45 2.0 8.0 0.00 0.27 0.00 17 1023.1
20180419171507 56 324 3.0 8.0 0.00 0.27 0.00 19 1023.2
20180419171008 56 338 1.0 2.0 0.00 0.27 0.00 21 1023.2
20180419170005 55 270 2.0 6.0 0.00 0.28 0.00 20 1023.2
20180419165506 55 90 4.0 6.0 0.00 0.28 0.00 22 1023.2
20180419165006 54 333 3.0 8.0 0.00 0.28 0.00 21 1023.2
20180419164505 56 305 2.0 3.0 0.00 0.28 0.00 21 1023.2
20180419164005 54 21 2.0 5.0 0.00 0.28 0.00 23 1023.2